When you browse on this site, cookies collect data to enhance your experience and personalize the content and advertising you see.
Visit our Privacy Policy to learn more. By continuing to use the site, you agree to this use of cookies and data.
  • en Belgique
  • Liste des pays
  • À 7 jours
  • Température de l'eau
  • Carte satellitaire
  • Carte météo
  • Widgets météo
  • user-avatar
    Se connecter

    Météo par heure à Сhiang Mai

    Ce jour, 18 Février, Lundi

    Heure Température Précipitation Vent Pression Humidité
    00:00 +24°C° 0 mm 1 m/s 731 mmHg 43%
    01:00 +21°C° 0 mm 0 m/s 731 mmHg 50%
    02:00 +20°C° 0 mm 0 m/s 731 mmHg 51%
    03:00 +20°C° 0 mm 0 m/s 731 mmHg 53%
    04:00 +20°C° 0 mm 0 m/s 731 mmHg 54%
    05:00 +19°C° 0 mm 0 m/s 731 mmHg 56%
    06:00 +19°C° 0 mm 0 m/s 731 mmHg 59%
    07:00 +19°C° 0 mm 0 m/s 732 mmHg 61%
    08:00 +22°C° 0 mm 0 m/s 732 mmHg 53%
    09:00 +26°C° 0 mm 0 m/s 733 mmHg 44%
    10:00 +31°C° 0 mm 1 m/s 733 mmHg 36%
    11:00 +32°C° 0 mm 1 m/s 733 mmHg 32%
    12:00 +34°C° 0 mm 1 m/s 732 mmHg 27%
    13:00 +36°C° 0 mm 2 m/s 732 mmHg 23%
    14:00 +36°C° 0 mm 2 m/s 731 mmHg 22%
    15:00 +36°C° 0 mm 2 m/s 730 mmHg 21%
    16:00 +37°C° 0 mm 2 m/s 730 mmHg 20%
    17:00 +34°C° 0 mm 2 m/s 730 mmHg 25%
    18:00 +31°C° 0 mm 2 m/s 730 mmHg 29%
    19:00 +29°C° 0 mm 1 m/s 730 mmHg 34%
    20:00 +28°C° 0 mm 1 m/s 731 mmHg 37%
    21:00 +27°C° 0 mm 1 m/s 731 mmHg 40%
    22:00 +25°C° 0 mm 1 m/s 732 mmHg 43%
    23:00 +25°C° 0 mm 1 m/s 732 mmHg 44%

    Demain, 19 Février, Mardi

    Heure Température Précipitation Vent Pression Humidité
    00:00 +24°C° 0 mm 1 m/s 732 mmHg 46%
    01:00 +23°C° 0 mm 1 m/s 732 mmHg 48%
    02:00 +23°C° 0 mm 1 m/s 732 mmHg 50%
    03:00 +22°C° 0 mm 1 m/s 731 mmHg 51%
    04:00 +22°C° 0 mm 1 m/s 731 mmHg 53%
    05:00 +22°C° 0 mm 1 m/s 732 mmHg 55%
    06:00 +19°C° 0 mm 0 m/s 732 mmHg 58%
    07:00 +19°C° 0 mm 0 m/s 733 mmHg 60%
    08:00 +23°C° 0 mm 0 m/s 733 mmHg 52%
    09:00 +26°C° 0 mm 0 m/s 734 mmHg 43%
    10:00 +30°C° 0 mm 0 m/s 734 mmHg 35%
    11:00 +33°C° 0 mm 1 m/s 734 mmHg 31%
    12:00 +34°C° 0 mm 1 m/s 733 mmHg 28%
    13:00 +37°C° 0 mm 2 m/s 733 mmHg 24%
    14:00 +37°C° 0 mm 2 m/s 732 mmHg 23%
    15:00 +37°C° 0 mm 2 m/s 731 mmHg 22%
    16:00 +37°C° 0 mm 2 m/s 730 mmHg 21%
    17:00 +34°C° 0 mm 1 m/s 731 mmHg 25%
    18:00 +31°C° 0 mm 1 m/s 731 mmHg 28%
    19:00 +27°C° 0 mm 0 m/s 731 mmHg 32%
    20:00 +26°C° 0 mm 0 m/s 732 mmHg 35%
    21:00 +25°C° 0 mm 0 m/s 733 mmHg 37%
    22:00 +24°C° 0 mm 0 m/s 734 mmHg 40%
    23:00 +23°C° 0 mm 0 m/s 734 mmHg 42%

    Après-demain, 20 Février, Mercredi

    Heure Température Précipitation Vent Pression Humidité
    00:00 +22°C° 0 mm 0 m/s 734 mmHg 43%
    01:00 +22°C° 0 mm 0 m/s 734 mmHg 45%
    02:00 +21°C° 0 mm 0 m/s 733 mmHg 47%
    03:00 +21°C° 0 mm 0 m/s 733 mmHg 48%
    04:00 +20°C° 0 mm 0 m/s 733 mmHg 49%
    05:00 +20°C° 0 mm 0 m/s 733 mmHg 50%
    06:00 +19°C° 0 mm 0 m/s 733 mmHg 51%
    07:00 +19°C° 0 mm 0 m/s 734 mmHg 51%
    08:00 +23°C° 0 mm 0 m/s 735 mmHg 43%
    09:00 +27°C° 0 mm 0 m/s 735 mmHg 34%
    10:00 +31°C° 0 mm 0 m/s 736 mmHg 26%
    11:00 +32°C° 0 mm 0 m/s 735 mmHg 23%
    12:00 +36°C° 0 mm 1 m/s 735 mmHg 19%
    13:00 +37°C° 0 mm 1 m/s 734 mmHg 16%
    14:00 +37°C° 0 mm 1 m/s 733 mmHg 16%
    15:00 +37°C° 0 mm 1 m/s 732 mmHg 16%
    16:00 +37°C° 0 mm 1 m/s 731 mmHg 15%
    17:00 +35°C° 0 mm 1 m/s 731 mmHg 19%
    18:00 +32°C° 0 mm 1 m/s 732 mmHg 22%
    19:00 +27°C° 0 mm 0 m/s 732 mmHg 26%
    20:00 +26°C° 0 mm 0 m/s 733 mmHg 27%
    21:00 +27°C° 0 mm 1 m/s 734 mmHg 29%
    22:00 +27°C° 0 mm 1 m/s 734 mmHg 31%
    23:00 +26°C° 0 mm 1 m/s 734 mmHg 34%

    21 Février, Jeudi

    Heure Température Précipitation Vent Pression Humidité
    00:00 +25°C° 0 mm 1 m/s 734 mmHg 36%
    01:00 +22°C° 0 mm 0 m/s 734 mmHg 38%
    02:00 +24°C° 0 mm 1 m/s 734 mmHg 40%
    03:00 +23°C° 0 mm 1 m/s 733 mmHg 42%
    04:00 +23°C° 0 mm 1 m/s 733 mmHg 43%
    05:00 +23°C° 0 mm 1 m/s 734 mmHg 45%
    06:00 +22°C° 0 mm 1 m/s 734 mmHg 46%
    07:00 +22°C° 0 mm 1 m/s 735 mmHg 47%
    08:00 +26°C° 0 mm 1 m/s 735 mmHg 40%
    09:00 +30°C° 0 mm 1 m/s 736 mmHg 32%
    10:00 +32°C° 0 mm 0 m/s 736 mmHg 25%
    11:00 +34°C° 0 mm 0 m/s 735 mmHg 22%
    12:00 +39°C° 0 mm 1 m/s 735 mmHg 19%
    13:00 +41°C° 0 mm 1 m/s 734 mmHg 16%
    14:00 +40°C° 0 mm 1 m/s 733 mmHg 16%
    15:00 +40°C° 0 mm 1 m/s 732 mmHg 15%
    16:00 +39°C° 0 mm 1 m/s 731 mmHg 15%
    17:00 +36°C° 0 mm 1 m/s 731 mmHg 19%
    18:00 +33°C° 0 mm 1 m/s 731 mmHg 22%
    19:00 +28°C° 0 mm 0 m/s 732 mmHg 26%
    20:00 +27°C° 0 mm 0 m/s 732 mmHg 27%
    21:00 +28°C° 0 mm 1 m/s 733 mmHg 29%
    22:00 +27°C° 0 mm 1 m/s 733 mmHg 30%
    23:00 +26°C° 0 mm 1 m/s 733 mmHg 32%

    22 Février, Vendredi

    Heure Température Précipitation Vent Pression Humidité
    00:00 +26°C° 0 mm 1 m/s 733 mmHg 33%
    01:00 +25°C° 0 mm 1 m/s 732 mmHg 34%
    02:00 +25°C° 0 mm 1 m/s 732 mmHg 35%
    03:00 +24°C° 0 mm 1 m/s 732 mmHg 37%
    04:00 +24°C° 0 mm 1 m/s 731 mmHg 38%
    05:00 +23°C° 0 mm 1 m/s 732 mmHg 39%
    06:00 +23°C° 0 mm 1 m/s 732 mmHg 39%
    07:00 +22°C° 0 mm 1 m/s 733 mmHg 40%
    08:00 +25°C° 0 mm 0 m/s 733 mmHg 34%
    09:00 +29°C° 0 mm 0 m/s 734 mmHg 28%
    10:00 +33°C° 0 mm 0 m/s 735 mmHg 21%
    11:00 +34°C° 0 mm 0 m/s 734 mmHg 19%
    12:00 +39°C° 0 mm 1 m/s 733 mmHg 16%
    13:00 +40°C° 0 mm 1 m/s 732 mmHg 14%
    14:00 +40°C° 0 mm 1 m/s 731 mmHg 14%
    15:00 +40°C° 0 mm 1 m/s 731 mmHg 13%
    16:00 +40°C° 0 mm 1 m/s 730 mmHg 13%
    17:00 +36°C° 0 mm 1 m/s 730 mmHg 16%
    18:00 +34°C° 0 mm 1 m/s 730 mmHg 19%
    19:00 +29°C° 0 mm 0 m/s 731 mmHg 23%
    20:00 +28°C° 0 mm 0 m/s 731 mmHg 24%
    21:00 +27°C° 0 mm 0 m/s 732 mmHg 26%
    22:00 +28°C° 0 mm 1 m/s 732 mmHg 28%
    23:00 +27°C° 0 mm 1 m/s 732 mmHg 29%

    23 Février, Samedi

    Heure Température Précipitation Vent Pression Humidité
    00:00 +26°C° 0 mm 1 m/s 732 mmHg 31%
    01:00 +23°C° 0 mm 0 m/s 731 mmHg 32%
    02:00 +25°C° 0 mm 1 m/s 731 mmHg 33%
    03:00 +24°C° 0 mm 1 m/s 731 mmHg 34%
    04:00 +24°C° 0 mm 1 m/s 731 mmHg 35%
    05:00 +23°C° 0 mm 1 m/s 731 mmHg 36%
    06:00 +23°C° 0 mm 1 m/s 731 mmHg 37%
    07:00 +23°C° 0 mm 1 m/s 732 mmHg 38%
    08:00 +25°C° 0 mm 0 m/s 732 mmHg 32%
    09:00 +29°C° 0 mm 0 m/s 733 mmHg 26%
    10:00 +33°C° 0 mm 0 m/s 734 mmHg 20%
    11:00 +35°C° 0 mm 0 m/s 733 mmHg 18%
    12:00 +40°C° 0 mm 1 m/s 732 mmHg 16%
    13:00 +42°C° 0 mm 1 m/s 731 mmHg 14%
    14:00 +41°C° 0 mm 1 m/s 730 mmHg 13%
    15:00 +41°C° 0 mm 1 m/s 730 mmHg 13%
    16:00 +41°C° 0 mm 1 m/s 729 mmHg 12%
    17:00 +37°C° 0 mm 1 m/s 729 mmHg 16%
    18:00 +34°C° 0 mm 1 m/s 729 mmHg 19%
    19:00 +30°C° 0 mm 0 m/s 730 mmHg 22%
    20:00 +28°C° 0 mm 0 m/s 730 mmHg 24%
    21:00 +29°C° 0 mm 1 m/s 731 mmHg 26%
    22:00 +28°C° 0 mm 1 m/s 731 mmHg 27%
    23:00 +27°C° 0 mm 1 m/s 731 mmHg 30%
    Voir plus